Terug naar catalogus

STARLINK-35988

ActiefCommunicatieVLEO
NORAD 66615·PAYLOAD·🇺🇸 United States

Gelanceerd Nov 22, 2025 vanaf Cape Canaveral Space Force Station

Loading…

Volgende Passages (komende 24 uur)

TLE

VersSource: CelesTrak SupGP

Epoch: Sep 14, 2026, 21:40 UTC

1 66615C 25270AD  26257.90326389  .00050834  00000+0  18414-2 0  2578
2 66615  43.0001  67.4919 0001444 273.7738 131.5933 15.27549748    18

Volg STARLINK-35988 in realtime met AllMySat

Download on the App Store